GLO1775 SBFN-SBIL

Flight info

Callsign GLO1775
Flight time 1h 53m
Altitude 34000
Route EDVUP UN857 AMBET UZ14 AKPAS DCT TOLOG
Aircraft B738/M-SDE2E3FGHIRWXY/LB1

Departure

Time 2026-05-06 16:38
Airport Fernando de Noronha Airport (SBFN)

Arrival

Time 2026-05-06 18:31
Airport Bahia - Jorge Amado Airport (SBIL)
Time Latitude Longitude Altitude Speed Heading
2026-05-06 16:16 -3.85587 -32.42818 197 ft 0 kts 184°
2026-05-06 16:32 -3.85578 -32.42817 185 ft 3 kts 185°
2026-05-06 16:32 -3.85568 -32.42815 193 ft 3 kts 219°
2026-05-06 16:32 -3.85560 -32.42803 189 ft 3 kts 274°
2026-05-06 16:33 -3.85560 -32.42799 185 ft 0 kts 276°
2026-05-06 16:35 -3.85560 -32.42803 196 ft 3 kts 275°
2026-05-06 16:35 -3.85558 -32.42847 191 ft 10 kts 271°
2026-05-06 16:35 -3.85550 -32.42896 196 ft 9 kts 285°
2026-05-06 16:35 -3.85529 -32.42926 195 ft 12 kts 319°
2026-05-06 16:36 -3.85444 -32.42989 194 ft 12 kts 325°
2026-05-06 16:36 -3.85393 -32.43055 209 ft 13 kts 272°
2026-05-06 16:36 -3.85419 -32.43107 209 ft 8 kts 249°
2026-05-06 16:36 -3.85387 -32.43102 204 ft 12 kts 80°
2026-05-06 16:37 -3.85386 -32.43084 202 ft 0 kts 91°
2026-05-06 16:37 -3.85386 -32.43082 207 ft 0 kts 91°
2026-05-06 16:37 -3.85390 -32.42992 194 ft 50 kts 93°
2026-05-06 16:37 -3.85436 -32.42374 188 ft 132 kts 94°
2026-05-06 16:38 -3.85519 -32.41256 332 ft 188 kts 95°
2026-05-06 16:38 -3.85602 -32.39912 1213 ft 202 kts 94°
2026-05-06 16:38 -3.85712 -32.38426 1905 ft 223 kts 97°
2026-05-06 16:38 -3.85945 -32.36851 2470 ft 234 kts 109°
2026-05-06 16:39 -3.86838 -32.35508 3087 ft 236 kts 140°
2026-05-06 16:39 -3.88336 -32.34811 3551 ft 250 kts 168°
2026-05-06 16:39 -3.90119 -32.34565 3963 ft 264 kts 159°
2026-05-06 16:39 -3.91667 -32.33594 4796 ft 263 kts 143°
2026-05-06 16:40 -3.93191 -32.32868 5558 ft 271 kts 166°
2026-05-06 16:40 -3.95092 -32.32896 6349 ft 281 kts 193°
2026-05-06 16:40 -3.96896 -32.33701 7139 ft 288 kts 207°
2026-05-06 16:40 -3.98645 -32.34719 7879 ft 293 kts 208°
2026-05-06 16:41 -4.00407 -32.35775 8625 ft 298 kts 208°
2026-05-06 16:41 -4.02093 -32.36793 9313 ft 302 kts 209°
2026-05-06 16:41 -4.03863 -32.37947 10068 ft 306 kts 217°
2026-05-06 16:41 -4.05509 -32.39374 10473 ft 324 kts 220°
2026-05-06 16:42 -4.07236 -32.40946 10648 ft 346 kts 220°
2026-05-06 16:42 -4.08453 -32.42026 10769 ft 359 kts 219°
2026-05-06 16:42 -4.10406 -32.43688 10918 ft 378 kts 218°
2026-05-06 16:42 -4.12494 -32.45385 11047 ft 395 kts 217°
2026-05-06 16:43 -4.14695 -32.47113 11237 ft 408 kts 216°
2026-05-06 16:43 -4.16965 -32.48856 11663 ft 413 kts 215°
2026-05-06 16:43 -4.19261 -32.50596 12234 ft 414 kts 215°
2026-05-06 16:43 -4.21566 -32.52332 12792 ft 415 kts 215°
2026-05-06 16:44 -4.23885 -32.54074 13281 ft 418 kts 215°
2026-05-06 16:44 -4.26161 -32.55781 13739 ft 421 kts 215°
2026-05-06 16:44 -4.28513 -32.57546 14189 ft 424 kts 215°
2026-05-06 16:44 -4.30879 -32.59323 14630 ft 426 kts 215°
2026-05-06 16:45 -4.34034 -32.61693 15205 ft 429 kts 216°
2026-05-06 16:45 -4.35621 -32.62886 15486 ft 431 kts 216°
2026-05-06 16:45 -4.38025 -32.64693 15876 ft 433 kts 216°
2026-05-06 16:45 -4.40444 -32.66512 16276 ft 436 kts 216°
2026-05-06 16:46 -4.42875 -32.68339 16672 ft 438 kts 216°
2026-05-06 16:46 -4.45313 -32.70173 17054 ft 440 kts 216°
2026-05-06 16:46 -4.47766 -32.72018 17412 ft 442 kts 216°
2026-05-06 16:46 -4.50235 -32.73876 17759 ft 444 kts 216°
2026-05-06 16:47 -4.52705 -32.75734 18095 ft 446 kts 216°
2026-05-06 16:47 -4.55194 -32.77608 18418 ft 448 kts 216°
2026-05-06 16:47 -4.57698 -32.79492 18715 ft 450 kts 216°
2026-05-06 16:47 -4.60229 -32.81355 18989 ft 453 kts 213°
2026-05-06 16:48 -4.62955 -32.82943 19252 ft 455 kts 207°
2026-05-06 16:48 -4.65788 -32.84385 19535 ft 457 kts 206°
2026-05-06 16:48 -4.68641 -32.85804 19794 ft 459 kts 206°
2026-05-06 16:48 -4.71511 -32.87230 20041 ft 461 kts 206°
2026-05-06 16:49 -4.74390 -32.88673 20279 ft 464 kts 206°
2026-05-06 16:49 -4.77135 -32.90061 20514 ft 465 kts 206°
2026-05-06 16:49 -4.79994 -32.91518 20746 ft 467 kts 207°
2026-05-06 16:49 -4.82928 -32.93021 20943 ft 470 kts 207°
2026-05-06 16:50 -4.85843 -32.94519 21143 ft 472 kts 207°
2026-05-06 16:50 -4.88742 -32.96011 21369 ft 473 kts 207°
2026-05-06 16:50 -4.91642 -32.97504 21588 ft 474 kts 207°
2026-05-06 16:50 -4.94584 -32.99019 21760 ft 477 kts 207°
2026-05-06 16:51 -4.97543 -33.00547 21959 ft 479 kts 207°
2026-05-06 16:51 -5.00462 -33.02054 22187 ft 478 kts 207°
2026-05-06 16:51 -5.03435 -33.03576 22278 ft 481 kts 207°
2026-05-06 16:51 -5.06426 -33.05113 22378 ft 484 kts 207°
2026-05-06 16:52 -5.09426 -33.06656 22565 ft 485 kts 207°
2026-05-06 16:52 -5.12430 -33.08203 22779 ft 485 kts 207°
2026-05-06 16:52 -5.15433 -33.09746 22902 ft 486 kts 207°
2026-05-06 16:52 -5.18450 -33.11294 22979 ft 489 kts 207°
2026-05-06 16:53 -5.21472 -33.12850 23110 ft 490 kts 207°
2026-05-06 16:53 -5.24305 -33.14308 23224 ft 490 kts 207°
2026-05-06 16:53 -5.27339 -33.15876 23352 ft 491 kts 207°
2026-05-06 16:53 -5.30389 -33.17450 23467 ft 493 kts 207°
2026-05-06 16:54 -5.33394 -33.18998 23597 ft 494 kts 207°
2026-05-06 16:54 -5.36448 -33.20569 23743 ft 494 kts 207°
2026-05-06 16:54 -5.39507 -33.22139 23834 ft 495 kts 207°
2026-05-06 16:54 -5.42578 -33.23721 23920 ft 497 kts 207°
2026-05-06 16:55 -5.45655 -33.25308 24047 ft 498 kts 207°
2026-05-06 16:55 -5.48696 -33.26877 24185 ft 498 kts 207°
2026-05-06 16:55 -5.51780 -33.28469 24322 ft 499 kts 207°
2026-05-06 16:55 -5.54868 -33.30062 24455 ft 499 kts 207°
2026-05-06 16:56 -5.57960 -33.31656 24574 ft 500 kts 208°
2026-05-06 16:56 -5.61056 -33.33252 24704 ft 500 kts 208°
2026-05-06 16:56 -5.64162 -33.34853 24851 ft 501 kts 208°
2026-05-06 16:56 -5.67262 -33.36451 24980 ft 501 kts 208°
2026-05-06 16:57 -5.70371 -33.38055 25089 ft 502 kts 208°
2026-05-06 16:57 -5.73471 -33.39653 25185 ft 502 kts 208°
2026-05-06 16:57 -5.76591 -33.41262 25268 ft 503 kts 208°
2026-05-06 16:57 -5.79701 -33.42867 25368 ft 504 kts 208°
2026-05-06 16:58 -5.82824 -33.44478 25508 ft 504 kts 208°
2026-05-06 16:58 -5.85885 -33.46058 25609 ft 504 kts 208°
2026-05-06 16:58 -5.89011 -33.47671 25683 ft 505 kts 208°
2026-05-06 16:58 -5.92135 -33.49284 25790 ft 505 kts 208°
2026-05-06 16:59 -5.95257 -33.50894 25941 ft 504 kts 208°
2026-05-06 16:59 -5.98379 -33.52507 26111 ft 503 kts 208°
2026-05-06 16:59 -6.01494 -33.54115 26265 ft 502 kts 208°
2026-05-06 16:59 -6.04598 -33.55718 26407 ft 501 kts 208°
2026-05-06 17:00 -6.07697 -33.57320 26648 ft 501 kts 208°
2026-05-06 17:00 -6.10557 -33.58798 26892 ft 500 kts 208°
2026-05-06 17:00 -6.13598 -33.60369 27203 ft 497 kts 208°
2026-05-06 17:00 -6.16672 -33.61957 27468 ft 496 kts 209°
2026-05-06 17:01 -6.19747 -33.63546 27629 ft 498 kts 209°
2026-05-06 17:01 -6.22827 -33.65139 27850 ft 497 kts 209°
2026-05-06 17:01 -6.25898 -33.66726 28114 ft 495 kts 209°
2026-05-06 17:01 -6.28957 -33.68307 28343 ft 494 kts 209°
2026-05-06 17:02 -6.32011 -33.69885 28532 ft 493 kts 209°
2026-05-06 17:02 -6.35063 -33.71464 28708 ft 493 kts 209°
2026-05-06 17:02 -6.38114 -33.73042 28911 ft 493 kts 209°
2026-05-06 17:02 -6.41166 -33.74622 29161 ft 492 kts 209°
2026-05-06 17:03 -6.44198 -33.76191 29409 ft 491 kts 209°
2026-05-06 17:03 -6.47233 -33.77760 29632 ft 490 kts 209°
2026-05-06 17:03 -6.50269 -33.79331 29841 ft 489 kts 209°
2026-05-06 17:03 -6.53297 -33.80899 30041 ft 489 kts 209°
2026-05-06 17:04 -6.56327 -33.82468 30243 ft 488 kts 209°
2026-05-06 17:04 -6.59344 -33.84030 30469 ft 487 kts 210°
2026-05-06 17:04 -6.62357 -33.85589 30703 ft 486 kts 210°
2026-05-06 17:04 -6.65364 -33.87145 30928 ft 486 kts 210°
2026-05-06 17:05 -6.68366 -33.88700 31151 ft 485 kts 210°
2026-05-06 17:05 -6.71327 -33.90232 31388 ft 484 kts 210°
2026-05-06 17:05 -6.74318 -33.91781 31608 ft 483 kts 210°
2026-05-06 17:05 -6.77305 -33.93330 31814 ft 483 kts 210°
2026-05-06 17:06 -6.80175 -33.94818 32048 ft 482 kts 210°
2026-05-06 17:06 -6.82976 -33.96269 32278 ft 481 kts 210°
2026-05-06 17:06 -6.85940 -33.97806 32505 ft 480 kts 210°
2026-05-06 17:06 -6.88913 -33.99347 32745 ft 479 kts 210°
2026-05-06 17:07 -6.91873 -34.00881 32996 ft 478 kts 211°
2026-05-06 17:07 -6.94824 -34.02410 33273 ft 475 kts 211°
2026-05-06 17:07 -6.97756 -34.03925 33606 ft 472 kts 210°
2026-05-06 17:07 -7.00688 -34.05411 33838 ft 472 kts 211°
2026-05-06 17:08 -7.03612 -34.06930 33973 ft 472 kts 211°
2026-05-06 17:08 -7.09454 -34.09987 33989 ft 473 kts 211°
2026-05-06 17:09 -7.15285 -34.13027 33991 ft 472 kts 211°
2026-05-06 17:09 -7.21080 -34.16038 33992 ft 471 kts 211°
2026-05-06 17:10 -7.26855 -34.19037 33994 ft 471 kts 211°
2026-05-06 17:10 -7.32685 -34.22066 33992 ft 471 kts 211°
2026-05-06 17:11 -7.38526 -34.25101 33991 ft 471 kts 211°
2026-05-06 17:11 -7.44286 -34.28096 33991 ft 472 kts 211°
2026-05-06 17:12 -7.50128 -34.31134 33993 ft 472 kts 211°
2026-05-06 17:12 -7.55969 -34.34172 33993 ft 473 kts 211°
2026-05-06 17:13 -7.61817 -34.37214 33991 ft 473 kts 211°
2026-05-06 17:13 -7.67635 -34.40243 33990 ft 474 kts 211°
2026-05-06 17:14 -7.73332 -34.43209 33992 ft 474 kts 211°
2026-05-06 17:14 -7.78867 -34.46727 33998 ft 467 kts 222°
2026-05-06 17:15 -7.83918 -34.50847 33993 ft 467 kts 223°
2026-05-06 17:15 -7.88753 -34.54797 33991 ft 467 kts 223°
2026-05-06 17:16 -7.93831 -34.58890 33965 ft 468 kts 222°
2026-05-06 17:16 -7.98934 -34.62979 33963 ft 467 kts 222°
2026-05-06 17:17 -8.04024 -34.67058 33959 ft 467 kts 222°
2026-05-06 17:17 -8.09114 -34.71143 33964 ft 467 kts 222°
2026-05-06 17:18 -8.14191 -34.75220 33962 ft 466 kts 222°
2026-05-06 17:18 -8.19299 -34.79255 33959 ft 467 kts 220°
2026-05-06 17:19 -8.24596 -34.82990 33967 ft 468 kts 218°
2026-05-06 17:19 -8.29988 -34.86677 33960 ft 468 kts 218°
2026-05-06 17:20 -8.35352 -34.90387 33967 ft 467 kts 218°
2026-05-06 17:20 -8.40688 -34.94109 33973 ft 466 kts 219°
2026-05-06 17:21 -8.46021 -34.97842 33974 ft 466 kts 219°
2026-05-06 17:21 -8.51350 -35.01572 33971 ft 466 kts 219°
2026-05-06 17:22 -8.56674 -35.05298 33976 ft 465 kts 219°
2026-05-06 17:22 -8.61994 -35.09021 33984 ft 465 kts 219°
2026-05-06 17:23 -8.67303 -35.12739 33981 ft 465 kts 219°
2026-05-06 17:23 -8.72616 -35.16461 33982 ft 464 kts 219°
2026-05-06 17:24 -8.77926 -35.20183 33979 ft 464 kts 219°
2026-05-06 17:24 -8.83174 -35.23863 33990 ft 464 kts 219°
2026-05-06 17:25 -8.88481 -35.27584 33992 ft 464 kts 219°
2026-05-06 17:25 -8.93786 -35.31314 33990 ft 464 kts 219°
2026-05-06 17:26 -8.99086 -35.35046 33992 ft 464 kts 219°
2026-05-06 17:26 -9.04391 -35.38784 33990 ft 464 kts 219°
2026-05-06 17:27 -9.09693 -35.42520 33990 ft 464 kts 219°
2026-05-06 17:27 -9.14998 -35.46260 33989 ft 464 kts 219°
2026-05-06 17:28 -9.20307 -35.50004 33991 ft 465 kts 219°
2026-05-06 17:28 -9.25580 -35.53719 33991 ft 465 kts 219°
2026-05-06 17:29 -9.30900 -35.57463 33989 ft 465 kts 219°
2026-05-06 17:29 -9.36218 -35.61208 33992 ft 465 kts 219°
2026-05-06 17:30 -9.41531 -35.64952 33992 ft 465 kts 219°
2026-05-06 17:30 -9.45969 -35.68086 33989 ft 465 kts 219°
2026-05-06 17:31 -9.51244 -35.71805 33990 ft 465 kts 219°
2026-05-06 17:31 -9.56548 -35.75545 33993 ft 465 kts 219°
2026-05-06 17:32 -9.61853 -35.79289 33989 ft 465 kts 219°
2026-05-06 17:32 -9.67158 -35.83036 33992 ft 464 kts 219°
2026-05-06 17:33 -9.72459 -35.86781 33991 ft 464 kts 219°
2026-05-06 17:33 -9.77759 -35.90527 33991 ft 464 kts 219°
2026-05-06 17:34 -9.83068 -35.94282 33991 ft 465 kts 219°
2026-05-06 17:34 -9.88370 -35.98032 33990 ft 465 kts 219°
2026-05-06 17:35 -9.93676 -36.01785 33993 ft 464 kts 219°
2026-05-06 17:35 -9.98941 -36.05510 33994 ft 464 kts 219°
2026-05-06 17:36 -10.06880 -36.11133 34002 ft 464 kts 219°
2026-05-06 17:36 -10.12186 -36.14894 34001 ft 465 kts 219°
2026-05-06 17:37 -10.17487 -36.18653 33999 ft 465 kts 219°
2026-05-06 17:37 -10.22788 -36.22412 33999 ft 465 kts 219°
2026-05-06 17:38 -10.27463 -36.25728 34001 ft 464 kts 219°
2026-05-06 17:38 -10.32665 -36.29420 33999 ft 464 kts 219°
2026-05-06 17:39 -10.37902 -36.33139 34005 ft 464 kts 219°
2026-05-06 17:39 -10.43130 -36.36852 33996 ft 464 kts 219°
2026-05-06 17:40 -10.48086 -36.40374 34000 ft 463 kts 219°
2026-05-06 17:40 -10.52985 -36.43857 33996 ft 463 kts 219°
2026-05-06 17:41 -10.58260 -36.47609 34001 ft 463 kts 219°
2026-05-06 17:41 -10.62679 -36.50753 34002 ft 462 kts 219°
2026-05-06 17:42 -10.67951 -36.54505 34001 ft 462 kts 219°
2026-05-06 17:42 -10.73140 -36.58200 34001 ft 462 kts 219°
2026-05-06 17:43 -10.78367 -36.61925 33999 ft 461 kts 219°
2026-05-06 17:43 -10.82805 -36.65087 34000 ft 461 kts 219°
2026-05-06 17:44 -10.88055 -36.68845 33995 ft 461 kts 219°
2026-05-06 17:44 -10.93149 -36.72506 33992 ft 461 kts 219°
2026-05-06 17:45 -10.98387 -36.76273 33988 ft 460 kts 219°
2026-05-06 17:45 -11.03270 -36.79785 33990 ft 460 kts 219°
2026-05-06 17:46 -11.08469 -36.83523 33992 ft 460 kts 219°
2026-05-06 17:46 -11.13498 -36.87142 33990 ft 460 kts 219°
2026-05-06 17:47 -11.18715 -36.90897 33992 ft 460 kts 219°
2026-05-06 17:47 -11.23835 -36.94584 33988 ft 460 kts 219°
2026-05-06 17:48 -11.29060 -36.98349 33992 ft 460 kts 219°
2026-05-06 17:48 -11.33871 -37.01816 33991 ft 460 kts 219°
2026-05-06 17:49 -11.39056 -37.05555 33991 ft 459 kts 219°
2026-05-06 17:49 -11.43796 -37.08975 33999 ft 459 kts 219°
2026-05-06 17:50 -11.49009 -37.12737 34000 ft 459 kts 219°
2026-05-06 17:50 -11.54223 -37.16502 34001 ft 459 kts 219°
2026-05-06 17:51 -11.59431 -37.20264 34001 ft 458 kts 219°
2026-05-06 17:51 -11.64451 -37.23894 33999 ft 458 kts 219°
2026-05-06 17:52 -11.69489 -37.27536 34000 ft 458 kts 219°
2026-05-06 17:52 -11.74073 -37.30853 34001 ft 457 kts 219°
2026-05-06 17:53 -11.79267 -37.34610 33999 ft 457 kts 219°
2026-05-06 17:53 -11.84401 -37.38330 34002 ft 456 kts 219°
2026-05-06 17:54 -11.89580 -37.42082 33997 ft 456 kts 219°
2026-05-06 17:54 -11.94449 -37.45579 34001 ft 456 kts 217°
2026-05-06 17:55 -11.99761 -37.49140 34002 ft 456 kts 216°
2026-05-06 17:55 -12.04716 -37.52403 34011 ft 457 kts 216°
2026-05-06 17:56 -12.10077 -37.55962 34007 ft 457 kts 216°
2026-05-06 17:56 -12.14508 -37.58924 34005 ft 457 kts 217°
2026-05-06 17:57 -12.20094 -37.62669 34011 ft 456 kts 217°
2026-05-06 17:57 -12.25400 -37.66228 34009 ft 456 kts 217°
2026-05-06 17:58 -12.30251 -37.69484 34011 ft 456 kts 217°
2026-05-06 17:58 -12.35519 -37.73023 34010 ft 456 kts 217°
2026-05-06 17:59 -12.40080 -37.76085 34023 ft 456 kts 217°
2026-05-06 17:59 -12.45238 -37.79552 34016 ft 456 kts 217°
2026-05-06 18:00 -12.50346 -37.82984 34021 ft 456 kts 217°
2026-05-06 18:00 -12.55653 -37.86554 34022 ft 457 kts 217°
2026-05-06 18:01 -12.60777 -37.90003 34024 ft 457 kts 217°
2026-05-06 18:01 -12.66089 -37.93580 34015 ft 458 kts 216°
2026-05-06 18:02 -12.71119 -37.96968 34022 ft 458 kts 216°
2026-05-06 18:02 -12.76448 -38.00562 34014 ft 459 kts 216°
2026-05-06 18:03 -12.80835 -38.03519 34026 ft 458 kts 216°
2026-05-06 18:03 -12.86159 -38.07109 34018 ft 457 kts 216°
2026-05-06 18:04 -12.90593 -38.10100 34015 ft 457 kts 216°
2026-05-06 18:04 -12.95902 -38.13684 34016 ft 456 kts 216°
2026-05-06 18:05 -13.01125 -38.17212 34016 ft 456 kts 216°
2026-05-06 18:05 -13.06425 -38.20795 34018 ft 456 kts 216°
2026-05-06 18:06 -13.11598 -38.24293 34017 ft 456 kts 216°
2026-05-06 18:06 -13.16868 -38.27858 34023 ft 456 kts 216°
2026-05-06 18:07 -13.21284 -38.30847 34015 ft 456 kts 216°
2026-05-06 18:07 -13.26455 -38.34349 34020 ft 456 kts 216°
2026-05-06 18:08 -13.31762 -38.37945 34031 ft 457 kts 216°
2026-05-06 18:08 -13.37064 -38.41540 34027 ft 457 kts 216°
2026-05-06 18:09 -13.39722 -38.43343 33740 ft 462 kts 216°
2026-05-06 18:09 -13.42409 -38.45165 33103 ft 461 kts 216°
2026-05-06 18:09 -13.45082 -38.46978 32340 ft 460 kts 216°
2026-05-06 18:09 -13.47760 -38.48796 31566 ft 461 kts 216°
2026-05-06 18:10 -13.50437 -38.50614 30759 ft 462 kts 216°
2026-05-06 18:10 -13.53121 -38.52437 29916 ft 463 kts 215°
2026-05-06 18:10 -13.55811 -38.54265 29024 ft 464 kts 215°
2026-05-06 18:10 -13.58511 -38.56101 28080 ft 466 kts 215°
2026-05-06 18:11 -13.61220 -38.57942 27094 ft 468 kts 215°
2026-05-06 18:11 -13.63021 -38.59167 26405 ft 469 kts 215°
2026-05-06 18:11 -13.66662 -38.61642 25288 ft 465 kts 215°
2026-05-06 18:11 -13.69343 -38.63465 24541 ft 461 kts 215°
2026-05-06 18:12 -13.72002 -38.65274 23805 ft 456 kts 215°
2026-05-06 18:12 -13.74596 -38.67041 23088 ft 451 kts 214°
2026-05-06 18:12 -13.77199 -38.68814 22370 ft 446 kts 214°
2026-05-06 18:12 -13.79779 -38.70571 21657 ft 442 kts 214°
2026-05-06 18:13 -13.82324 -38.72303 20954 ft 437 kts 214°
2026-05-06 18:13 -13.84923 -38.73921 20052 ft 438 kts 210°
2026-05-06 18:13 -13.87609 -38.75389 19281 ft 436 kts 208°
2026-05-06 18:13 -13.90309 -38.76797 18555 ft 432 kts 207°
2026-05-06 18:14 -13.92983 -38.78177 17861 ft 428 kts 207°
2026-05-06 18:14 -13.95624 -38.79549 17170 ft 424 kts 207°
2026-05-06 18:14 -13.98249 -38.80927 16484 ft 420 kts 207°
2026-05-06 18:14 -14.00834 -38.82296 15804 ft 416 kts 207°
2026-05-06 18:15 -14.03399 -38.83663 15127 ft 412 kts 207°
2026-05-06 18:15 -14.05898 -38.85000 14467 ft 408 kts 207°
2026-05-06 18:15 -14.08406 -38.86344 13801 ft 404 kts 207°
2026-05-06 18:15 -14.10892 -38.87677 13150 ft 401 kts 207°
2026-05-06 18:16 -14.13350 -38.88996 12496 ft 397 kts 207°
2026-05-06 18:16 -14.15795 -38.90308 11847 ft 394 kts 207°
2026-05-06 18:16 -14.18213 -38.91606 11369 ft 385 kts 206°
2026-05-06 18:16 -14.20510 -38.92839 11189 ft 360 kts 206°
2026-05-06 18:17 -14.22674 -38.94002 11029 ft 342 kts 206°
2026-05-06 18:17 -14.24747 -38.95116 10884 ft 327 kts 206°
2026-05-06 18:17 -14.26753 -38.96192 10768 ft 328 kts 206°
2026-05-06 18:17 -14.28786 -38.97282 10573 ft 338 kts 206°
2026-05-06 18:18 -14.30878 -38.98403 9980 ft 336 kts 206°
2026-05-06 18:18 -14.32926 -38.99503 9431 ft 328 kts 205°
2026-05-06 18:18 -14.34939 -39.00585 8880 ft 323 kts 205°
2026-05-06 18:18 -14.36914 -39.01647 8331 ft 318 kts 205°
2026-05-06 18:19 -14.38858 -39.02693 7775 ft 313 kts 205°
2026-05-06 18:19 -14.40734 -39.03701 7240 ft 309 kts 205°
2026-05-06 18:19 -14.42035 -39.04401 6873 ft 307 kts 205°
2026-05-06 18:19 -14.43918 -39.05414 6426 ft 300 kts 205°
2026-05-06 18:20 -14.45734 -39.06392 6190 ft 293 kts 205°
2026-05-06 18:20 -14.47512 -39.07350 5920 ft 282 kts 205°
2026-05-06 18:20 -14.49218 -39.08269 5655 ft 271 kts 205°
2026-05-06 18:20 -14.50878 -39.09162 5411 ft 267 kts 205°
2026-05-06 18:21 -14.52523 -39.10045 5165 ft 265 kts 205°
2026-05-06 18:21 -14.54151 -39.10921 4913 ft 263 kts 205°
2026-05-06 18:21 -14.55763 -39.11788 4677 ft 259 kts 205°
2026-05-06 18:21 -14.57312 -39.12624 4613 ft 243 kts 204°
2026-05-06 18:22 -14.58770 -39.13411 4503 ft 230 kts 204°
2026-05-06 18:22 -14.60150 -39.14155 4394 ft 217 kts 204°
2026-05-06 18:22 -14.61450 -39.14856 4273 ft 206 kts 204°
2026-05-06 18:22 -14.62711 -39.15534 4059 ft 203 kts 204°
2026-05-06 18:23 -14.63963 -39.16208 4026 ft 203 kts 204°
2026-05-06 18:23 -14.65216 -39.16882 3994 ft 202 kts 204°
2026-05-06 18:23 -14.66456 -39.17550 4001 ft 202 kts 204°
2026-05-06 18:23 -14.67702 -39.18221 4009 ft 202 kts 204°
2026-05-06 18:24 -14.68950 -39.18894 4021 ft 200 kts 204°
2026-05-06 18:24 -14.70177 -39.19556 4003 ft 198 kts 204°
2026-05-06 18:24 -14.71372 -39.20200 3998 ft 195 kts 204°
2026-05-06 18:24 -14.72556 -39.20839 3996 ft 187 kts 204°
2026-05-06 18:25 -14.73718 -39.21412 3986 ft 179 kts 190°
2026-05-06 18:25 -14.74938 -39.21446 3789 ft 180 kts 174°
2026-05-06 18:25 -14.76230 -39.21394 3398 ft 182 kts 175°
2026-05-06 18:25 -14.77449 -39.21361 3265 ft 167 kts 175°
2026-05-06 18:26 -14.78591 -39.21330 3252 ft 167 kts 175°
2026-05-06 18:26 -14.79766 -39.21296 3168 ft 167 kts 175°
2026-05-06 18:26 -14.80864 -39.21227 3130 ft 149 kts 163°
2026-05-06 18:26 -14.81555 -39.20595 3115 ft 136 kts 106°
2026-05-06 18:27 -14.81720 -39.19620 2991 ft 138 kts 101°
2026-05-06 18:27 -14.81826 -39.18633 2783 ft 137 kts 97°
2026-05-06 18:27 -14.81894 -39.17662 2603 ft 135 kts 95°
2026-05-06 18:27 -14.81915 -39.16682 2428 ft 138 kts 94°
2026-05-06 18:28 -14.81911 -39.15699 2258 ft 140 kts 92°
2026-05-06 18:28 -14.81895 -39.14690 2060 ft 140 kts 92°
2026-05-06 18:28 -14.81872 -39.13694 1875 ft 138 kts 92°
2026-05-06 18:28 -14.81848 -39.12698 1701 ft 139 kts 92°
2026-05-06 18:29 -14.81821 -39.11688 1508 ft 141 kts 91°
2026-05-06 18:29 -14.81793 -39.10677 1323 ft 142 kts 92°
2026-05-06 18:29 -14.81764 -39.09662 1132 ft 140 kts 92°
2026-05-06 18:29 -14.81740 -39.08665 951 ft 142 kts 91°
2026-05-06 18:30 -14.81712 -39.07646 767 ft 142 kts 91°
2026-05-06 18:30 -14.81681 -39.06636 575 ft 140 kts 91°
2026-05-06 18:30 -14.81655 -39.05641 418 ft 137 kts 90°
2026-05-06 18:30 -14.81629 -39.04659 189 ft 135 kts 90°
2026-05-06 18:31 -14.81601 -39.03706 28 ft 127 kts 88°
2026-05-06 18:31 -14.81581 -39.03066 16 ft 45 kts 88°
2026-05-06 18:31 -14.81577 -39.02856 16 ft 27 kts 89°
2026-05-06 18:31 -14.81584 -39.02682 17 ft 17 kts 105°
2026-05-06 18:32 -14.81589 -39.02602 18 ft 10 kts 39°
2026-05-06 18:32 -14.81566 -39.02643 18 ft 8 kts 261°
2026-05-06 18:32 -14.81576 -39.02701 17 ft 9 kts 265°
2026-05-06 18:32 -14.81578 -39.02770 17 ft 11 kts 269°
2026-05-06 18:33 -14.81579 -39.02838 19 ft 11 kts 270°
2026-05-06 18:33 -14.81579 -39.02941 16 ft 15 kts 268°
2026-05-06 18:33 -14.81583 -39.02997 16 ft 5 kts 264°
2026-05-06 18:33 -14.81577 -39.03064 16 ft 14 kts 302°
2026-05-06 18:34 -14.81505 -39.03089 17 ft 10 kts 340°
2026-05-06 18:34 -14.81479 -39.03130 17 ft 4 kts 314°
2026-05-06 18:34 -14.81459 -39.03146 18 ft 2 kts 322°
2026-05-06 18:34 -14.81451 -39.03152 18 ft 0 kts 321°